This is the latest recevied weather packets stored in our database for station/object JS1SZZ-13. If no packets are shown the sender has not sent any weather packets the latest 10 day(s).
| Time | Temp. | Humidity | Pressure | Rain* | Wind** | Luminosity | Snow |
|---|---|---|---|---|---|---|---|
| 1787987558 | 19.44° C | 91% | 1009.1 hPa | 0.25 mm | - | - | - |
| 1787986660 | 19.44° C | 91% | 1008.9 hPa | 0.51 mm | - | - | - |
| 1787985759 | 19.44° C | 91% | 1008.9 hPa | 0.51 mm | - | - | - |
| 1787984858 | 19.44° C | 91% | 1008.6 hPa | 0.76 mm | - | - | - |
| 1787983958 | 19.44° C | 91% | 1009 hPa | 0.51 mm | - | - | - |
| 1787983059 | 20° C | 91% | 1008.7 hPa | 0.25 mm | - | - | - |
| 1787982158 | 20° C | 91% | 1008.6 hPa | 0.25 mm | - | - | - |
| 1787981258 | 19.44° C | 91% | 1008.6 hPa | 0.51 mm | - | - | - |
| 1787980359 | 19.44° C | 91% | 1008.6 hPa | 0.51 mm | - | - | - |
| 1787979459 | 19.44° C | 91% | 1008.8 hPa | 0.51 mm | - | - | - |
| 1787978558 | 20° C | 91% | 1008.7 hPa | 0.76 mm | - | - | - |
| 1787977659 | 20° C | 91% | 1008.8 hPa | 0.76 mm | - | - | - |
| 1787976759 | 20° C | 91% | 1008.9 hPa | 1.27 mm | - | - | - |
| 1787975858 | 20° C | 91% | 1009.2 hPa | 1.78 mm | - | - | - |
| 1787974960 | 20° C | 91% | 1009.3 hPa | 1.27 mm | - | - | - |
| 1787974059 | 20° C | 92% | 1009.2 hPa | 0.76 mm | - | - | - |
| 1787973159 | 20° C | 91% | 1009.3 hPa | 0.51 mm | - | - | - |
| 1787972258 | 20° C | 91% | 1009.5 hPa | 0.25 mm | - | - | - |
| 1787971359 | 20° C | 91% | 1009.5 hPa | 0.25 mm | - | - | - |
| 1787970459 | 20° C | 92% | 1009.7 hPa | 0.25 mm | - | - | - |
| 1787969558 | 20° C | 92% | 1009.7 hPa | 0 mm | - | - | - |
| 1787968659 | 19.44° C | 92% | 1010 hPa | 0.25 mm | - | - | - |
| 1787967758 | 18.89° C | 92% | 1009.9 hPa | 0.51 mm | - | - | - |
| 1787966859 | 18.89° C | 92% | 1010.2 hPa | 1.02 mm | - | - | - |
| 1787965959 | 18.89° C | 92% | 1010.2 hPa | 1.78 mm | - | - | - |
* Rain latest hour (hover to see other rain measurements)
** Current wind speed in m/s (hover to see current wind gust speed)